This demonstration page uses our WeatherBlox Daily Observations layout. Learn more.

38.88101, -77.10428

Hourly Observations for April 2, 2020

Temp ( °F °C ) Dew Point ( °F °C ) Humidity (%) Winds ( mph kmh ) Pressure ( in mb ) Visibility ( mi km ) Precip ( " mm )
12:52 am 00:52 Mostly Cloudy 52 11.1 37 2.8 57 57 NNE 14 22 29.88 1012 10 16.0934 0 0
1:52 am 01:52 Partly Cloudy 48 8.9 25 -3.9 41 41 N 16 26 29.91 1013 10 16.0934 0 0
2:52 am 02:52 Mostly Clear 46 7.8 25 -3.9 44 44 N 14 22 29.92 1013 10 16.0934 0 0
3:52 am 03:52 Clear 43 6.1 25 -3.9 49 49 NNW 7 11 29.93 1014 10 16.0934 0 0
4:52 am 04:52 Clear 44 6.7 25 -3.9 47 47 NW 10 17 29.93 1013 10 16.0934 0 0
5:52 am 05:52 Clear 43 6.1 26 -3.3 51 51 NW 7 11 29.93 1013 10 16.0934 0 0
6:52 am 06:52 Sunny 44 6.7 25 -3.9 47 47 NW 12 19 29.93 1014 10 16.0934 0 0
7:52 am 07:52 Sunny 46 7.8 26 -3.3 46 46 WNW 10 17 29.94 1014 10 16.0934 0 0
8:52 am 08:52 Sunny 49 9.4 27 -2.8 43 43 NW 15 24 29.95 1014 10 16.0934 0 0
9:52 am 09:52 Sunny 52 11.1 30 -1.1 43 43 NW 17 28 29.94 1014 10 16.0934 0 0
10:52 am 10:52 Mostly Sunny 54 12.2 28 -2.2 37 37 NW 15 24 29.92 1013 10 16.0934 0 0
11:52 am 11:52 Mostly Sunny 56 13.3 27 -2.8 33 33 NW 22 35 29.91 1013 10 16.0934 0 0
12:52 pm 12:52 Mostly Sunny 58 14.4 28 -2.2 32 32 NW 20 31 29.88 1012 10 16.0934 0 0
1:52 pm 13:52 Partly Cloudy 60 15.6 28 -2.2 30 30 WNW 15 24 29.85 1011 10 16.0934 0 0
2:52 pm 14:52 Partly Cloudy 62 16.7 29 -1.7 29 29 WNW 21 33 29.83 1010 10 16.0934 0 0
3:52 pm 15:52 Partly Cloudy 62 16.7 30 -1.1 30 30 NNW 28 44 29.81 1010 10 16.0934 0 0
4:52 pm 16:52 Partly Cloudy 63 17.2 31 -0.6 30 30 NW 23 37 29.8 1009 10 16.0934 0 0
6:52 pm 18:52 Mostly Sunny 62 16.7 29 -1.7 29 29 NW 18 30 29.79 1009 10 16.0934 0 0
9:52 pm 21:52 Clear 57 13.9 27 -2.8 32 32 NW 16 26 29.83 1010 10 16.0934 0 0
10:52 pm 22:52 Clear 56 13.3 26 -3.3 32 32 NW 15 24 29.84 1010 10 16.0934 0 0
11:52 pm 23:52 Clear 54 12.2 26 -3.3 34 34 NW 14 22 29.84 1011 10 16.0934 0 0

Powered by AerisWeather